Terminal Aerodrome Forecast
Issued by NWS Charleston, WV

Current Version | Previous Version | Text Only | Print | Product List | Glossary Off
Versions: 1 2 3 4 5 6 7 8 9 10 11 12 13 14 15 16 17 18 19 20 21 22 23 24 25 26 27

185
FTUS41 KRLX 211437 AAA
TAFBKW
TAF AMD
KBKW 211437Z 2115/2212 15009G18KT P6SM BKN250
     FM212100 16007KT P6SM BKN200
     FM220800 17005KT 5SM -SHRA OVC028=

USA.gov is the U.S. government's official web portal to all federal, state and local government web resources and services.